[[{"header":{"parameterUnit":"m.s-1","parameterCategory":1,"la1":30.2991,"la2":30.254,"lo1":-89.0895,"lo2":-89.0444,"dy":0.0017,"dx":0.0017,"nx":28,"ny":28,"refTime":"2023-04-17T21:00:00:Z","depth":0,"parameterNumber":2,"parameterNumberName":"U-component_of_WINDS"},"data":[0,0,0,0,0,0,0,0,0,0,0,0,0,0,0,0,0,0,0,0,0,0,0,0,0,0,0,0,0,0,0,0,0,0,0,0,0,0,0,0,0,0,0,0,0,0,0,0,0,0,0,0,0,0,0,0,0,0,-5.302,-5.3021,0,-5.3071,-5.3072,-5.3072,-5.3004,-5.3002,-5.2999,-5.2997,-5.3047,-5.3051,-5.3055,0,0,0,0,0,0,0,0,0,0,0,0,0,-5.2864,-5.2867,-5.302,-5.3021,-5.3021,-5.3071,-5.3072,-5.3072,-5.3005,-5.3002,-5.2999,-5.2996,-5.3046,-5.3051,-5.3055,0,0,0,0,0,0,0,0,0,0,0,0,0,-5.2925,-5.2868,-5.302,-5.2994,-5.2992,-5.3071,-5.3072,-5.3073,-5.3005,-5.3002,-5.2998,-5.2994,-5.3045,-5.305,-5.3055,-5.3162,0,0,-5.3072,-5.3074,0,0,0,0,0,0,0,0,-5.2921,-5.2931,-5.2997,-5.2996,-5.2994,-5.3028,-5.3035,-5.3103,-5.3006,-5.3,-5.2997,-5.2993,-5.3044,-5.3049,-5.3067,-5.3165,-5.3167,-5.3073,-5.3076,-5.3078,-5.308,0,0,0,0,0,0,0,-5.2917,-5.2928,-5.304,-5.2998,-5.2996,-5.2979,-5.2984,-5.3048,-5.3042,-5.3,-5.2995,-5.3003,-5.3042,-5.3062,-5.3067,-5.3168,-5.3072,-5.3077,-5.3081,-5.3083,-5.3357,-5.3361,0,0,0,0,0,0,-5.2916,-5.2925,-5.3039,-5.3042,-5.2948,-5.2985,-5.299,-5.302,-5.3041,-5.3041,-5.3006,-5.2999,-5.3054,-5.3061,-5.3069,-5.3195,-5.3078,-5.3083,-5.3086,-5.3353,-5.3358,-5.3363,0,0,0,0,0,0,-5.2913,-5.2927,-5.3036,-5.2982,-5.2995,-5.2992,-5.3026,-5.3023,-5.3042,-5.3045,-5.3043,-5.3026,-5.3051,-5.3061,-5.314,-5.3196,-5.3086,-5.3091,-5.3349,-5.3355,-5.336,-5.3449,0,0,0,0,0,0,-5.2909,-5.2926,-5.2967,-5.2984,-5.2998,-5.3107,-5.303,-5.3027,-5.3052,-5.3044,-5.3064,-5.3064,-5.3049,-5.3132,-5.3145,-5.3201,-5.3095,-5.3344,-5.3351,-5.3359,-5.3441,-5.3457,-5.3471,0,0,0,0,0,-5.2904,-5.2989,-5.2969,-5.2983,-5.3048,-5.311,-5.3118,-5.31,-5.3057,-5.3098,-5.31,-5.3063,-5.3189,-5.3141,-5.3155,-5.3213,-5.334,-5.3349,-5.3358,-5.3434,-5.3454,-5.3471,0,0,0,0,0,0,-5.2977,-5.299,-5.2969,-5.3062,-5.3086,-5.3099,-5.3149,-5.3122,-5.3158,-5.3149,-5.3125,-5.313,-5.3214,-5.3222,-5.3169,-5.3319,-5.3257,-5.3269,-5.331,-5.3329,-5.3344,-5.3338,-5.3099,0,0,0,0,0,-5.3005,-5.3054,-5.3063,-5.3145,-5.3158,-5.3152,-5.3178,-5.3163,-5.3186,-5.3195,-5.3203,-5.3227,-5.3271,-5.3301,-5.3342,-5.3443,-5.3446,-5.349,-5.3505,-5.3518,-5.3528,-5.3582,-5.3601,-5.3392,-5.3392,-5.3392,0,0,-5.3061,-5.3075,-5.3107,-5.316,-5.3176,-5.3228,-5.316,-5.3218,-5.3255,-5.3204,-5.3278,-5.3286,-5.331,-5.3401,-5.3441,-5.341,-5.3587,-5.3529,-5.3539,-5.3542,-5.3593,-5.3613,-5.3631,-5.3399,-5.3398,-5.3397,0,0,-5.3189,-5.3205,-5.3275,-5.3294,-5.332,-5.3316,-5.3333,-5.3351,-5.3354,-5.3429,-5.3392,-5.3437,-5.3515,-5.3534,-5.3554,-5.3694,-5.3662,-5.3708,-5.3786,-5.3839,-5.3855,-5.387,-5.3919,-5.3937,-5.3719,-5.3719,-5.3719,0,-5.3255,-5.3332,-5.3314,-5.3374,-5.3398,-5.3356,-5.3427,-5.3446,-5.3484,-5.3502,-5.3468,-5.3565,-5.3579,-5.3673,-5.3708,-5.3726,-5.3744,-5.3704,-5.3855,-5.3869,-5.3882,-5.3928,-5.3947,-5.3725,-5.3724,-5.3723,-5.3723,0,-5.3411,-5.3466,-5.3519,-5.3558,-5.3589,-5.3654,-5.3646,-5.368,-5.3663,-5.3663,-5.374,-5.3757,-5.38,-5.3822,-5.3806,-5.3915,-5.3895,-5.3859,-5.3795,-5.3908,-5.3951,-5.3968,-5.3732,-5.373,-5.3729,-5.3727,0,0,-5.3583,-5.3615,-5.3634,-5.3652,-5.368,-5.3721,-5.3786,-5.383,-5.3858,-5.3888,-5.394,-5.4009,-5.3976,-5.3999,-5.3985,-5.4032,-5.4141,-5.3989,-5.3989,-5.4015,-5.4261,-5.4287,-5.4308,-5.4121,-5.4124,-5.4127,-5.4259,0,-5.3711,-5.3821,-5.3808,-5.3914,-5.3963,-5.3926,-5.3982,-5.4005,-5.4008,-5.4051,-5.4054,-5.4102,-5.4055,-5.4069,-5.4114,-5.4118,-5.4189,-5.4109,-5.4168,-5.4171,-5.416,-5.433,-5.4357,-5.448,-5.4276,-5.4278,-5.4281,0,-5.3872,-5.3909,-5.402,-5.4042,-5.4062,-5.4112,-5.4152,-5.4194,-5.422,-5.4219,-5.4247,-5.4225,-5.429,-5.4229,-5.4317,-5.4262,-5.4287,-5.4293,-5.4297,-5.43,-5.423,-5.4335,-5.4519,-5.4537,-5.4307,-5.4305,-5.4303,0,-5.3985,-5.4062,-5.4138,-5.4155,-5.4183,-5.4219,-5.4232,-5.4255,-5.4283,-5.4319,-5.4337,-5.438,-5.4402,-5.4436,-5.4427,-5.4383,-5.4518,-5.4455,-5.4517,-5.4518,-5.4544,-5.4542,-5.4732,-5.4565,-5.4565,-5.4564,-5.4564,0,-5.4126,-5.4195,-5.4189,-5.4235,-5.4312,-5.4298,-5.4374,-5.4383,-5.4404,-5.4452,-5.4423,-5.4469,-5.4455,-5.45,-5.4494,-5.4568,-5.4579,-5.4579,-5.4576,-5.458,-5.458,-5.4593,-5.4584,-5.4569,-5.4568,-5.4567,-5.4566,0,-5.4263,-5.4262,-5.4342,-5.4363,-5.437,-5.4426,-5.4443,-5.4487,-5.449,-5.455,-5.4564,-5.4567,-5.4619,-5.4614,-5.4672,-5.4668,-5.4759,-5.4747,-5.475,-5.4746,-5.4808,-5.4801,-5.5011,-5.5038,-5.4855,-5.4857,-5.4859,0,-5.4352,-5.4404,-5.4431,-5.4462,-5.4478,-5.4527,-5.4556,-5.4546,-5.4577,-5.4613,-5.4653,-5.4702,-5.4741,-5.4826,-5.4833,-5.4877,-5.4865,-5.4935,-5.4871,-5.4874,-5.4863,-5.4859,-5.4864,-5.4947,-5.4949,-5.4951,-5.4952,0,-5.4509,-5.4507,-5.455,-5.4594,-5.463,-5.4663,-5.4694,-5.4721,-5.4713,-5.475,-5.4803,-5.4834,-5.4894,-5.4943,-5.4987,-5.5,-5.4975,-5.4973,-5.4989,-5.4992,-5.4991,-5.4991,-5.4782,-5.4967,-5.4966,-5.4964,-5.4964,-5.4963,-5.4623,-5.4668,-5.4695,-5.4744,-5.4767,-5.4797,-5.484,-5.4848,-5.4893,-5.4941,-5.4933,-5.4993,-5.502,-5.5075,-5.5093,-5.514,-5.5114,-5.5138,-5.5144,-5.5149,-5.5156,-5.4987,-5.5148,-5.5148,-5.5147,-5.5147,-5.5147,0,-5.4777,-5.4793,-5.4839,-5.4884,-5.4923,-5.4899,-5.4933,-5.4967,-5.502,-5.5048,-5.5087,-5.5149,-5.5198,-5.521,-5.5257,-5.5292,-5.5282,-5.5305,-5.53,-5.5304,-5.5177,-5.5157,-5.5312,-5.5312,-5.5312,-5.5312,-5.5312,-5.5312,-5.4861,-5.4936,-5.4938,-5.5024,-5.504,-5.5099,-5.512,-5.5148,-5.517,-5.5241,-5.5281,-5.529,-5.5312,-5.5361,-5.5404,-5.5407,-5.5424,-5.5451,-5.5449,-5.5329,-5.5313,-5.5297,-5.5278,-5.5456,-5.5456,-5.5572,-5.5573,-5.5574]},{"header":{"parameterUnit":"m.s-1","parameterCategory":1,"la1":30.2991,"la2":30.254,"lo1":-89.0895,"lo2":-89.0444,"dy":0.0017,"dx":0.0017,"nx":28,"ny":28,"refTime":"2023-04-17T21:00:00:Z","depth":0,"parameterNumber":3,"parameterNumberName":"V-component_of_WINDS"},"data":[0,0,0,0,0,0,0,0,0,0,0,0,0,0,0,0,0,0,0,0,0,0,0,0,0,0,0,0,0,0,0,0,0,0,0,0,0,0,0,0,0,0,0,0,0,0,0,0,0,0,0,0,0,0,0,0,0,0,2.8544,2.8543,0,2.8478,2.8477,2.8476,2.8438,2.8438,2.8438,2.8438,2.8365,2.8363,2.8361,0,0,0,0,0,0,0,0,0,0,0,0,0,2.8635,2.8634,2.8544,2.8543,2.8543,2.8478,2.8477,2.8476,2.8438,2.8438,2.8438,2.8437,2.8365,2.8363,2.8361,0,0,0,0,0,0,0,0,0,0,0,0,0,2.8585,2.8633,2.8544,2.8516,2.8513,2.8478,2.8477,2.8476,2.8438,2.8438,2.8438,2.8437,2.8366,2.8363,2.8361,2.8348,0,0,2.8352,2.8351,0,0,0,0,0,0,0,0,2.8588,2.8581,2.8521,2.8518,2.8514,2.8466,2.8482,2.8433,2.8438,2.8466,2.8438,2.8437,2.8398,2.8393,2.8381,2.8344,2.8341,2.8352,2.835,2.8349,2.8348,0,0,0,0,0,0,0,2.8591,2.8584,2.8518,2.852,2.8516,2.8505,2.8498,2.8473,2.8434,2.8464,2.8461,2.8454,2.8396,2.8383,2.8379,2.834,2.8352,2.835,2.8348,2.8347,2.8291,2.8291,0,0,0,0,0,0,2.86,2.8587,2.852,2.8516,2.8551,2.8504,2.8496,2.8482,2.8434,2.8427,2.8454,2.8452,2.8388,2.8382,2.8376,2.8358,2.8349,2.8347,2.8345,2.8291,2.8291,2.8291,0,0,0,0,0,0,2.8602,2.8594,2.8522,2.8551,2.8541,2.8503,2.8487,2.848,2.8467,2.8427,2.8419,2.8448,2.8388,2.838,2.8356,2.8355,2.8345,2.8343,2.829,2.8291,2.8291,2.8323,0,0,0,0,0,0,2.8605,2.8595,2.859,2.8551,2.854,2.8504,2.8487,2.8479,2.8463,2.846,2.8419,2.8412,2.8387,2.836,2.8353,2.8351,2.8341,2.829,2.8291,2.8291,2.8321,2.8324,2.8326,0,0,0,0,0,2.8608,2.8601,2.859,2.8582,2.8533,2.8504,2.8498,2.847,2.8464,2.8458,2.8432,2.8414,2.8357,2.8358,2.8349,2.8347,2.829,2.829,2.8291,2.832,2.8323,2.8326,0,0,0,0,0,0,2.8639,2.8595,2.8583,2.8563,2.8538,2.8498,2.849,2.8474,2.8449,2.8447,2.8413,2.8404,2.8383,2.8362,2.8364,2.8333,2.8321,2.832,2.8347,2.8349,2.8352,2.8357,2.8339,0,0,0,0,0,2.8644,2.8625,2.8587,2.8573,2.8562,2.8529,2.8515,2.8496,2.8468,2.8457,2.8429,2.8402,2.8378,2.8362,2.8338,2.8319,2.8309,2.8313,2.8315,2.8317,2.8316,2.8306,2.8307,2.8292,2.8292,2.8292,0,0,2.8653,2.8626,2.8616,2.8579,2.8557,2.8538,2.852,2.85,2.8485,2.8453,2.8429,2.8408,2.8375,2.8354,2.8343,2.8336,2.8319,2.8318,2.832,2.8318,2.8306,2.8308,2.8309,2.8292,2.8292,2.8292,0,0,2.8659,2.8638,2.8624,2.8604,2.8573,2.8551,2.8548,2.8511,2.8496,2.8472,2.8448,2.843,2.8389,2.8367,2.835,2.8351,2.8333,2.8344,2.8356,2.8346,2.8347,2.8348,2.8349,2.8349,2.8344,2.8344,2.8344,0,2.8674,2.8646,2.8619,2.8602,2.8586,2.8559,2.8544,2.8525,2.8487,2.8476,2.8469,2.8419,2.8395,2.8368,2.8369,2.8356,2.8351,2.8348,2.8349,2.835,2.835,2.835,2.8351,2.8345,2.8345,2.8345,2.8345,0,2.8666,2.8647,2.8639,2.8605,2.8589,2.8573,2.8543,2.8529,2.8513,2.8491,2.8468,2.8438,2.8408,2.84,2.8382,2.8372,2.8368,2.8356,2.8344,2.8354,2.8353,2.8353,2.8347,2.8347,2.8346,2.8346,0,0,2.8688,2.8642,2.8639,2.8624,2.8589,2.8573,2.8556,2.8528,2.8517,2.8492,2.8477,2.8444,2.8433,2.8414,2.8394,2.8386,2.8389,2.8374,2.8373,2.8378,2.8376,2.8385,2.8386,2.8377,2.8377,2.8377,2.8379,0,2.869,2.866,2.8636,2.8615,2.8597,2.8572,2.8557,2.8533,2.8513,2.8495,2.8472,2.845,2.8437,2.8425,2.8416,2.8391,2.8388,2.839,2.8362,2.8361,2.8371,2.8385,2.8395,2.8398,2.8378,2.8378,2.8378,0,2.8687,2.8666,2.8643,2.8611,2.8603,2.859,2.8564,2.8546,2.8519,2.8505,2.8486,2.8465,2.8446,2.8437,2.8409,2.8411,2.8398,2.8385,2.8384,2.838,2.837,2.8382,2.8398,2.8398,2.8377,2.8378,2.8378,0,2.8707,2.8672,2.8654,2.8642,2.8603,2.8595,2.8579,2.8551,2.8537,2.8513,2.8504,2.8478,2.8463,2.8443,2.8416,2.8412,2.8392,2.838,2.8379,2.838,2.8375,2.8376,2.839,2.8368,2.8368,2.8368,2.8368,0,2.8711,2.8698,2.8662,2.8651,2.8636,2.8609,2.8595,2.8576,2.8552,2.8537,2.8513,2.8498,2.8464,2.8445,2.8424,2.8405,2.8398,2.8386,2.838,2.8388,2.839,2.8379,2.8378,2.8368,2.8368,2.8368,2.8368,0,2.8729,2.8705,2.8684,2.8651,2.8642,2.8633,2.8603,2.8592,2.8572,2.8552,2.8546,2.8514,2.8491,2.8463,2.8429,2.8415,2.8398,2.839,2.8408,2.8405,2.8406,2.8406,2.8412,2.8412,2.8391,2.8391,2.8391,0,2.8733,2.8723,2.869,2.8679,2.8664,2.8646,2.8631,2.8605,2.8591,2.856,2.8552,2.8527,2.8506,2.8471,2.8444,2.8419,2.8409,2.8413,2.8405,2.8414,2.841,2.8411,2.8409,2.8415,2.8416,2.8416,2.8416,0,2.8743,2.8732,2.8714,2.8692,2.8676,2.8656,2.8636,2.8628,2.8596,2.8582,2.8559,2.8543,2.8511,2.8487,2.846,2.8441,2.8423,2.8419,2.8418,2.8425,2.8436,2.8431,2.8414,2.8419,2.8419,2.8418,2.8418,2.8418,2.8754,2.8745,2.8721,2.8701,2.8683,2.8665,2.8653,2.8633,2.8614,2.8587,2.8572,2.855,2.8524,2.8485,2.8467,2.8449,2.8442,2.844,2.844,2.8439,2.8442,2.844,2.8444,2.8444,2.8444,2.8443,2.8443,0,2.8763,2.8747,2.873,2.8703,2.8688,2.8675,2.8652,2.8639,2.8621,2.8599,2.858,2.8554,2.8531,2.8504,2.8479,2.8469,2.8461,2.8464,2.8464,2.846,2.8449,2.8453,2.8471,2.8471,2.8471,2.8471,2.8471,2.8471,2.8766,2.875,2.8737,2.8711,2.8694,2.8674,2.8662,2.8646,2.8628,2.8601,2.8583,2.8566,2.8541,2.8515,2.8494,2.8486,2.8478,2.8483,2.8473,2.8463,2.8461,2.8458,2.8462,2.8482,2.8482,2.8486,2.8486,2.8486]}]]